QPF
0.01 0.01 0.00 0.00 0.00 0.01 0.02 0.02 0.01 0.01 0.01 0.01 0.00 0.00 0.01 0.01 0.00 0.00 0.00 0.01 0.01 0.00 0.01 0.01 0.02 0.03 0.02 0.02 0.01 0.01 0.01 0.01 0.02 0.02 0.02 0.02 0.02 0.02 0.01 0.03 0.03 0.04 0.06 0.04 0.04 0.06 0.08 0.08 0.07
0.02 0.01 0.01 0.01 0.00 0.01 0.01 0.01 0.01 0.01 0.01 0.01 0.01 0.01 0.01 0.01 0.00 0.00 0.00 0.00 0.00 0.00 0.00 0.01 0.02 0.03 0.02 0.02 0.02 0.02 0.02 0.02 0.02 0.02 0.02 0.02 0.02 0.02 0.02 0.02 0.02 0.03 0.04 0.04 0.05 0.06 0.08 0.07 0.07
0.01 0.01 0.01 0.01 0.00 0.01 0.01 0.00 0.01 0.01 0.01 0.01 0.02 0.02 0.01 0.00 0.00 0.00 0.00 0.00 0.00 0.00 0.01 0.01 0.02 0.02 0.02 0.02 0.02 0.02 0.02 0.02 0.03 0.02 0.02 0.02 0.02 0.02 0.02 0.02 0.02 0.02 0.03 0.03 0.04 0.06 0.07 0.07 0.07
0.01 0.01 0.01 0.01 0.00 0.00 0.00 0.00 0.01 0.01 0.02 0.04 0.03 0.02 0.01 0.00 0.00 0.00 0.00 0.00 0.00 0.01 0.02 0.02 0.02 0.03 0.03 0.02 0.02 0.01 0.02 0.02 0.02 0.02 0.02 0.03 0.03 0.03 0.02 0.03 0.03 0.02 0.03 0.04 0.05 0.06 0.07 0.07 0.08
0.01 0.01 0.01 0.01 0.00 0.01 0.01 0.00 0.01 0.01 0.02 0.03 0.03 0.02 0.01 0.01 0.00 0.00 0.00 0.00 0.01 0.02 0.03 0.02 0.02 0.03 0.03 0.02 0.01 0.01 0.01 0.02 0.02 0.02 0.02 0.02 0.03 0.03 0.02 0.02 0.03 0.03 0.03 0.04 0.04 0.06 0.06 0.06 0.09
0.00 0.01 0.01 0.01 0.01 0.00 0.00 0.00 0.00 0.00 0.01 0.02 0.02 0.01 0.02 0.01 0.00 0.00 0.00 0.00 0.02 0.04 0.02 0.02 0.02 0.03 0.04 0.02 0.02 0.01 0.01 0.02 0.03 0.03 0.03 0.02 0.03 0.02 0.02 0.02 0.03 0.03 0.03 0.03 0.04 0.05 0.05 0.06 0.08
0.00 0.00 0.01 0.01 0.01 0.00 0.00 0.00 0.00 0.01 0.01 0.02 0.02 0.01 0.02 0.01 0.01 0.01 0.01 0.01 0.00 0.00 0.01 0.01 0.02 0.03 0.04 0.04 0.03 0.02 0.01 0.01 0.02 0.03 0.05 0.04 0.02 0.02 0.02 0.03 0.04 0.04 0.04 0.03 0.03 0.05 0.06 0.04 0.06
0.00 0.00 0.01 0.01 0.01 0.01 0.00 0.00 0.01 0.01 0.02 0.02 0.01 0.01 0.02 0.02 0.01 0.01 0.01 0.01 0.01 0.01 0.00 0.01 0.01 0.01 0.02 0.02 0.03 0.02 0.01 0.01 0.03 0.03 0.06 0.07 0.06 0.04 0.03 0.03 0.04 0.05 0.06 0.04 0.04 0.05 0.05 0.03 0.05
0.00 0.00 0.00 0.00 0.00 0.00 0.00 0.01 0.01 0.01 0.01 0.01 0.01 0.01 0.01 0.02 0.01 0.01 0.01 0.01 0.01 0.01 0.01 0.02 0.03 0.03 0.02 0.02 0.02 0.02 0.01 0.02 0.02 0.02 0.04 0.06 0.05 0.05 0.04 0.04 0.04 0.05 0.06 0.05 0.05 0.05 0.04 0.04 0.05
0.00 0.00 0.00 0.00 0.00 0.00 0.00 0.00 0.01 0.01 0.01 0.01 0.01 0.01 0.01 0.01 0.01 0.02 0.02 0.01 0.01 0.01 0.02 0.02 0.02 0.02 0.04 0.04 0.03 0.03 0.02 0.01 0.01 0.01 0.01 0.02 0.02 0.02 0.03 0.04 0.05 0.06 0.07 0.07 0.07 0.05 0.04 0.03 0.03
0.00 0.00 0.00 0.00 0.00 0.00 0.00 0.00 0.01 0.01 0.00 0.00 0.01 0.01 0.01 0.02 0.02 0.02 0.02 0.02 0.02 0.02 0.02 0.03 0.03 0.04 0.05 0.06 0.04 0.02 0.02 0.01 0.02 0.01 0.01 0.01 0.02 0.03 0.04 0.03 0.03 0.04 0.07 0.08 0.08 0.06 0.04 0.03 0.03
0.00 0.00 0.00 0.00 0.00 0.00 0.00 0.00 0.00 0.00 0.00 0.00 0.01 0.01 0.01 0.02 0.02 0.02 0.02 0.03 0.03 0.04 0.03 0.04 0.04 0.03 0.03 0.05 0.06 0.05 0.03 0.02 0.02 0.01 0.01 0.01 0.03 0.03 0.03 0.02 0.01 0.02 0.03 0.05 0.07 0.07 0.05 0.04 0.04
0.00 0.00 0.00 0.00 0.00 0.00 0.00 0.00 0.00 0.00 0.00 0.00 0.00 0.02 0.02 0.02 0.02 0.03 0.04 0.05 0.04 0.03 0.03 0.04 0.03 0.02 0.03 0.03 0.05 0.06 0.05 0.05 0.04 0.02 0.02 0.01 0.02 0.03 0.02 0.02 0.02 0.02 0.02 0.02 0.02 0.04 0.06 0.05 0.04
0.00 0.00 0.00 0.00 0.00 0.00 0.00 0.00 0.00 0.00 0.00 0.00 0.00 0.01 0.01 0.01 0.01 0.02 0.03 0.03 0.03 0.03 0.02 0.03 0.03 0.02 0.02 0.03 0.04 0.06 0.06 0.07 0.08 0.05 0.03 0.02 0.01 0.02 0.02 0.02 0.01 0.02 0.02 0.01 0.01 0.02 0.03 0.04 0.04
0.00 0.00 0.00 0.00 0.00 0.00 0.01 0.00 0.00 0.01 0.00 0.00 0.00 0.01 0.01 0.01 0.01 0.01 0.02 0.02 0.02 0.02 0.02 0.03 0.03 0.02 0.02 0.02 0.03 0.04 0.05 0.06 0.09 0.08 0.05 0.02 0.01 0.01 0.02 0.03 0.02 0.02 0.02 0.02 0.01 0.02 0.02 0.03 0.03
0.00 0.00 0.00 0.00 0.00 0.00 0.00 0.00 0.00 0.01 0.00 0.01 0.00 0.00 0.01 0.01 0.01 0.01 0.01 0.01 0.01 0.02 0.02 0.03 0.03 0.02 0.02 0.02 0.02 0.03 0.03 0.04 0.05 0.06 0.06 0.04 0.02 0.01 0.01 0.02 0.02 0.03 0.05 0.03 0.02 0.02 0.02 0.02 0.02
0.01 0.01 0.01 0.01 0.00 0.00 0.00 0.00 0.00 0.00 0.01 0.01 0.01 0.01 0.01 0.01 0.01 0.01 0.01 0.02 0.02 0.02 0.03 0.04 0.03 0.03 0.03 0.03 0.03 0.04 0.03 0.04 0.04 0.05 0.04 0.03 0.02 0.02 0.01 0.01 0.02 0.03 0.04 0.04 0.04 0.03 0.02 0.02 0.02
0.00 0.00 0.01 0.01 0.00 0.00 0.00 0.00 0.00 0.00 0.01 0.01 0.01 0.01 0.01 0.02 0.02 0.01 0.01 0.01 0.02 0.04 0.04 0.03 0.04 0.04 0.05 0.05 0.05 0.04 0.03 0.03 0.04 0.05 0.04 0.03 0.02 0.02 0.02 0.03 0.03 0.04 0.04 0.05 0.06 0.04 0.03 0.03 0.04
0.00 0.00 0.00 0.00 0.00 0.00 0.00 0.00 0.00 0.00 0.00 0.01 0.01 0.01 0.01 0.02 0.04 0.02 0.01 0.01 0.01 0.03 0.04 0.03 0.03 0.04 0.04 0.05 0.04 0.03 0.03 0.03 0.02 0.03 0.03 0.03 0.03 0.04 0.03 0.04 0.04 0.06 0.05 0.05 0.06 0.06 0.06 0.05 0.06
0.00 0.00 0.00 0.00 0.00 0.00 0.00 0.00 0.00 0.00 0.00 0.01 0.01 0.01 0.02 0.02 0.05 0.02 0.01 0.01 0.04 0.06 0.04 0.03 0.02 0.04 0.04 0.04 0.03 0.03 0.03 0.02 0.03 0.04 0.04 0.04 0.04 0.03 0.02 0.02 0.03 0.05 0.06 0.06 0.05 0.05 0.07 0.06 0.06
0.00 0.00 0.00 0.00 0.00 0.00 0.00 0.00 0.00 0.00 0.00 0.00 0.01 0.01 0.02 0.02 0.03 0.02 0.01 0.01 0.02 0.07 0.05 0.03 0.03 0.03 0.03 0.04 0.04 0.03 0.02 0.01 0.02 0.03 0.03 0.03 0.03 0.03 0.03 0.02 0.02 0.04 0.05 0.05 0.05 0.04 0.04 0.05 0.05
0.00 0.00 0.00 0.00 0.00 0.00 0.00 0.00 0.00 0.00 0.00 0.00 0.01 0.01 0.01 0.02 0.02 0.02 0.03 0.01 0.01 0.03 0.04 0.03 0.05 0.04 0.03 0.03 0.03 0.03 0.01 0.01 0.01 0.01 0.01 0.01 0.01 0.02 0.02 0.02 0.03 0.03 0.04 0.04 0.05 0.05 0.03 0.02 0.03
0.00 0.00 0.00 0.00 0.00 0.00 0.00 0.01 0.00 0.00 0.00 0.00 0.01 0.01 0.01 0.01 0.02 0.03 0.03 0.01 0.01 0.02 0.03 0.03 0.04 0.05 0.03 0.02 0.02 0.02 0.02 0.01 0.00 0.00 0.01 0.01 0.01 0.01 0.02 0.02 0.03 0.03 0.04 0.04 0.05 0.04 0.04 0.03 0.02
0.00 0.00 0.00 0.00 0.00 0.00 0.00 0.00 0.00 0.00 0.00 0.01 0.01 0.01 0.01 0.00 0.01 0.05 0.04 0.02 0.01 0.01 0.01 0.02 0.02 0.02 0.02 0.02 0.02 0.02 0.02 0.01 0.01 0.01 0.01 0.01 0.01 0.01 0.02 0.02 0.03 0.03 0.03 0.04 0.05 0.05 0.05 0.05 0.04
0.00 0.01 0.01 0.00 0.00 0.00 0.00 0.00 0.00 0.00 0.00 0.00 0.01 0.01 0.01 0.01 0.01 0.02 0.02 0.01 0.01 0.01 0.01 0.01 0.01 0.01 0.01 0.02 0.02 0.03 0.03 0.02 0.01 0.02 0.03 0.03 0.04 0.03 0.03 0.03 0.03 0.04 0.03 0.03 0.04 0.04 0.04 0.04 0.04
0.00 0.01 0.01 0.00 0.00 0.00 0.00 0.00 0.00 0.00 0.00 0.00 0.00 0.00 0.01 0.01 0.01 0.01 0.01 0.01 0.00 0.00 0.01 0.01 0.01 0.01 0.01 0.02 0.03 0.03 0.03 0.03 0.04 0.05 0.07 0.07 0.07 0.05 0.04 0.03 0.04 0.04 0.04 0.04 0.04 0.04 0.04 0.05 0.05
0.01 0.01 0.01 0.01 0.00 0.00 0.00 0.00 0.00 0.00 0.00 0.00 0.00 0.00 0.01 0.01 0.01 0.01 0.01 0.01 0.01 0.01 0.01 0.01 0.01 0.01 0.01 0.02 0.03 0.04 0.04 0.04 0.05 0.07 0.09 0.10 0.07 0.05 0.04 0.05 0.05 0.05 0.05 0.04 0.04 0.04 0.05 0.06 0.06
0.00 0.01 0.01 0.01 0.01 0.00 0.00 0.00 0.00 0.00 0.00 0.00 0.00 0.00 0.01 0.01 0.01 0.01 0.01 0.01 0.01 0.01 0.02 0.02 0.03 0.04 0.04 0.04 0.04 0.04 0.04 0.04 0.05 0.05 0.05 0.06 0.06 0.06 0.06 0.06 0.06 0.06 0.05 0.04 0.04 0.04 0.04 0.05 0.05
0.01 0.00 0.01 0.01 0.02 0.01 0.00 0.00 0.00 0.00 0.00 0.00 0.00 0.00 0.01 0.01 0.01 0.02 0.02 0.02 0.02 0.03 0.04 0.04 0.04 0.04 0.05 0.05 0.05 0.04 0.04 0.04 0.05 0.04 0.05 0.06 0.06 0.07 0.07 0.07 0.07 0.06 0.05 0.04 0.04 0.04 0.05 0.05 0.04
0.00 0.00 0.01 0.01 0.01 0.01 0.00 0.00 0.00 0.00 0.00 0.00 0.00 0.00 0.01 0.01 0.02 0.03 0.02 0.02 0.03 0.03 0.04 0.04 0.03 0.04 0.05 0.05 0.06 0.06 0.05 0.04 0.04 0.04 0.05 0.06 0.07 0.08 0.07 0.06 0.06 0.06 0.06 0.06 0.05 0.05 0.05 0.05 0.05
MSLP
1009.73 1010.73 1011.85 1012.93 1013.81 1014.37 1014.57 1014.47 1014.14 1013.72 1013.35 1013.11 1013.05 1013.14 1013.33 1013.52 1013.62 1013.59 1013.42 1013.14 1012.82 1012.55 1012.39 1012.37 1012.50 1012.74 1013.02 1013.28 1013.48 1013.61 1013.66 1013.68 1013.70 1013.78 1013.92 1014.12 1014.36 1014.61 1014.83 1014.99 1015.11 1015.18 1015.25 1015.32 1015.42 1015.56 1015.73 1015.89 1016.04
1010.19 1011.37 1012.60 1013.68 1014.45 1014.84 1014.81 1014.45 1013.86 1013.21 1012.66 1012.30 1012.17 1012.25 1012.46 1012.71 1012.90 1012.96 1012.88 1012.70 1012.48 1012.30 1012.21 1012.27 1012.45 1012.74 1013.06 1013.36 1013.60 1013.77 1013.88 1013.95 1014.04 1014.16 1014.34 1014.55 1014.79 1015.01 1015.19 1015.31 1015.38 1015.42 1015.47 1015.53 1015.64 1015.78 1015.95 1016.12 1016.26
1010.84 1012.15 1013.42 1014.45 1015.11 1015.30 1015.05 1014.44 1013.63 1012.80 1012.10 1011.65 1011.49 1011.56 1011.80 1012.09 1012.34 1012.47 1012.47 1012.37 1012.23 1012.12 1012.10 1012.20 1012.43 1012.74 1013.08 1013.40 1013.67 1013.87 1014.02 1014.15 1014.29 1014.46 1014.67 1014.90 1015.13 1015.33 1015.48 1015.57 1015.61 1015.63 1015.67 1015.74 1015.85 1016.01 1016.19 1016.36 1016.51
1011.61 1012.99 1014.25 1015.20 1015.71 1015.71 1015.26 1014.46 1013.49 1012.53 1011.76 1011.26 1011.08 1011.16 1011.42 1011.75 1012.04 1012.21 1012.27 1012.23 1012.15 1012.10 1012.13 1012.27 1012.51 1012.82 1013.16 1013.47 1013.73 1013.94 1014.12 1014.28 1014.45 1014.66 1014.90 1015.15 1015.39 1015.58 1015.71 1015.79 1015.82 1015.84 1015.88 1015.96 1016.10 1016.27 1016.46 1016.65 1016.80
1012.40 1013.79 1014.98 1015.82 1016.17 1016.01 1015.40 1014.47 1013.41 1012.41 1011.62 1011.13 1010.97 1011.07 1011.35 1011.70 1012.01 1012.22 1012.31 1012.32 1012.29 1012.29 1012.35 1012.51 1012.75 1013.04 1013.34 1013.61 1013.84 1014.03 1014.20 1014.37 1014.56 1014.80 1015.06 1015.33 1015.58 1015.77 1015.91 1015.99 1016.03 1016.07 1016.13 1016.23 1016.39 1016.58 1016.78 1016.97 1017.13
1013.10 1014.42 1015.50 1016.19 1016.39 1016.10 1015.39 1014.42 1013.35 1012.38 1011.64 1011.21 1011.10 1011.24 1011.54 1011.90 1012.22 1012.45 1012.57 1012.62 1012.64 1012.67 1012.77 1012.93 1013.16 1013.41 1013.65 1013.86 1014.03 1014.17 1014.31 1014.46 1014.66 1014.91 1015.19 1015.48 1015.74 1015.96 1016.11 1016.21 1016.27 1016.33 1016.42 1016.55 1016.72 1016.93 1017.14 1017.33 1017.48
1013.62 1014.81 1015.72 1016.24 1016.29 1015.90 1015.16 1014.20 1013.21 1012.34 1011.72 1011.39 1011.36 1011.55 1011.88 1012.25 1012.57 1012.81 1012.96 1013.05 1013.10 1013.18 1013.31 1013.48 1013.69 1013.89 1014.07 1014.21 1014.31 1014.39 1014.48 1014.61 1014.81 1015.06 1015.35 1015.66 1015.94 1016.18 1016.36 1016.47 1016.56 1016.65 1016.76 1016.90 1017.09 1017.29 1017.50 1017.69 1017.83
1013.92 1014.92 1015.62 1015.95 1015.87 1015.41 1014.67 1013.79 1012.92 1012.21 1011.74 1011.55 1011.61 1011.87 1012.23 1012.61 1012.93 1013.18 1013.35 1013.48 1013.58 1013.71 1013.86 1014.05 1014.24 1014.41 1014.54 1014.61 1014.65 1014.68 1014.73 1014.84 1015.02 1015.28 1015.58 1015.91 1016.21 1016.46 1016.66 1016.80 1016.90 1017.00 1017.13 1017.28 1017.46 1017.67 1017.86 1018.03 1018.16
1014.02 1014.79 1015.27 1015.40 1015.18 1014.67 1013.96 1013.19 1012.48 1011.94 1011.64 1011.60 1011.76 1012.08 1012.47 1012.85 1013.18 1013.44 1013.63 1013.79 1013.95 1014.12 1014.31 1014.52 1014.71 1014.86 1014.96 1015.00 1015.00 1014.99 1015.02 1015.12 1015.31 1015.57 1015.89 1016.23 1016.54 1016.81 1017.02 1017.17 1017.29 1017.39 1017.51 1017.66 1017.84 1018.03 1018.21 1018.36 1018.47
1014.01 1014.53 1014.77 1014.70 1014.35 1013.79 1013.12 1012.46 1011.90 1011.54 1011.40 1011.49 1011.75 1012.11 1012.52 1012.91 1013.24 1013.50 1013.72 1013.91 1014.11 1014.33 1014.56 1014.80 1015.00 1015.16 1015.25 1015.28 1015.28 1015.28 1015.32 1015.43 1015.63 1015.91 1016.25 1016.60 1016.93 1017.21 1017.42 1017.57 1017.69 1017.79 1017.91 1018.04 1018.20 1018.37 1018.54 1018.67 1018.77
1013.98 1014.26 1014.26 1014.01 1013.53 1012.93 1012.29 1011.71 1011.29 1011.06 1011.06 1011.24 1011.57 1011.97 1012.38 1012.76 1013.08 1013.35 1013.58 1013.80 1014.03 1014.29 1014.56 1014.83 1015.07 1015.25 1015.37 1015.42 1015.45 1015.48 1015.56 1015.71 1015.94 1016.25 1016.60 1016.97 1017.31 1017.59 1017.81 1017.97 1018.09 1018.19 1018.29 1018.42 1018.56 1018.71 1018.86 1018.98 1019.07
1014.04 1014.10 1013.89 1013.47 1012.88 1012.23 1011.60 1011.09 1010.74 1010.61 1010.69 1010.93 1011.28 1011.69 1012.09 1012.45 1012.76 1013.02 1013.26 1013.49 1013.75 1014.04 1014.34 1014.64 1014.91 1015.13 1015.30 1015.41 1015.50 1015.59 1015.72 1015.92 1016.19 1016.53 1016.91 1017.29 1017.64 1017.93 1018.16 1018.32 1018.44 1018.55 1018.65 1018.77 1018.91 1019.05 1019.18 1019.30 1019.38
1014.22 1014.10 1013.74 1013.18 1012.51 1011.81 1011.18 1010.69 1010.38 1010.28 1010.37 1010.62 1010.97 1011.35 1011.72 1012.06 1012.35 1012.60 1012.84 1013.08 1013.34 1013.64 1013.96 1014.29 1014.59 1014.86 1015.08 1015.27 1015.43 1015.60 1015.80 1016.05 1016.37 1016.73 1017.12 1017.50 1017.86 1018.16 1018.40 1018.58 1018.73 1018.85 1018.97 1019.09 1019.23 1019.37 1019.50 1019.61 1019.69
1014.50 1014.28 1013.82 1013.18 1012.45 1011.73 1011.08 1010.57 1010.26 1010.14 1010.20 1010.41 1010.70 1011.04 1011.37 1011.68 1011.94 1012.18 1012.41 1012.65 1012.91 1013.20 1013.53 1013.87 1014.20 1014.52 1014.80 1015.06 1015.30 1015.54 1015.81 1016.11 1016.45 1016.82 1017.21 1017.59 1017.95 1018.26 1018.52 1018.73 1018.90 1019.06 1019.21 1019.36 1019.51 1019.66 1019.80 1019.90 1019.98
1014.83 1014.56 1014.06 1013.40 1012.67 1011.93 1011.28 1010.75 1010.38 1010.20 1010.19 1010.31 1010.53 1010.80 1011.08 1011.35 1011.61 1011.84 1012.06 1012.29 1012.54 1012.83 1013.15 1013.49 1013.85 1014.20 1014.54 1014.86 1015.17 1015.48 1015.80 1016.13 1016.47 1016.84 1017.20 1017.57 1017.91 1018.22 1018.49 1018.74 1018.96 1019.16 1019.35 1019.54 1019.72 1019.89 1020.03 1020.14 1020.21
1015.10 1014.83 1014.37 1013.75 1013.06 1012.36 1011.70 1011.14 1010.71 1010.43 1010.31 1010.32 1010.44 1010.63 1010.86 1011.11 1011.36 1011.59 1011.82 1012.05 1012.30 1012.57 1012.88 1013.22 1013.58 1013.97 1014.35 1014.74 1015.11 1015.46 1015.81 1016.14 1016.47 1016.80 1017.12 1017.44 1017.76 1018.06 1018.35 1018.62 1018.89 1019.14 1019.38 1019.61 1019.82 1020.01 1020.17 1020.28 1020.36
1015.22 1015.02 1014.64 1014.13 1013.53 1012.89 1012.25 1011.65 1011.15 1010.76 1010.50 1010.38 1010.39 1010.50 1010.69 1010.92 1011.18 1011.44 1011.69 1011.93 1012.18 1012.45 1012.74 1013.07 1013.45 1013.85 1014.28 1014.70 1015.12 1015.51 1015.86 1016.18 1016.48 1016.75 1017.01 1017.27 1017.54 1017.82 1018.11 1018.41 1018.71 1019.01 1019.29 1019.56 1019.80 1020.01 1020.18 1020.31 1020.39
1015.16 1015.05 1014.81 1014.45 1013.98 1013.43 1012.83 1012.21 1011.61 1011.09 1010.69 1010.42 1010.30 1010.33 1010.48 1010.72 1011.00 1011.30 1011.60 1011.88 1012.15 1012.42 1012.71 1013.04 1013.41 1013.83 1014.29 1014.75 1015.20 1015.61 1015.97 1016.27 1016.51 1016.72 1016.91 1017.09 1017.30 1017.54 1017.81 1018.12 1018.44 1018.77 1019.09 1019.39 1019.65 1019.88 1020.07 1020.21 1020.31
1014.92 1014.94 1014.87 1014.69 1014.38 1013.94 1013.38 1012.72 1012.03 1011.37 1010.79 1010.37 1010.12 1010.06 1010.18 1010.43 1010.76 1011.13 1011.49 1011.82 1012.13 1012.42 1012.72 1013.05 1013.43 1013.86 1014.34 1014.83 1015.30 1015.73 1016.09 1016.37 1016.57 1016.72 1016.83 1016.95 1017.09 1017.28 1017.52 1017.81 1018.13 1018.47 1018.80 1019.11 1019.39 1019.63 1019.83 1020.00 1020.12
1014.56 1014.73 1014.85 1014.87 1014.72 1014.39 1013.86 1013.16 1012.36 1011.53 1010.77 1010.17 1009.79 1009.65 1009.73 1010.00 1010.39 1010.84 1011.29 1011.71 1012.07 1012.40 1012.71 1013.05 1013.44 1013.88 1014.37 1014.89 1015.39 1015.84 1016.21 1016.48 1016.65 1016.75 1016.80 1016.85 1016.93 1017.06 1017.26 1017.51 1017.81 1018.14 1018.46 1018.77 1019.05 1019.29 1019.50 1019.68 1019.84
1014.16 1014.49 1014.80 1015.01 1015.02 1014.79 1014.27 1013.51 1012.57 1011.56 1010.61 1009.83 1009.30 1009.07 1009.12 1009.42 1009.88 1010.43 1010.98 1011.49 1011.92 1012.30 1012.65 1013.00 1013.39 1013.84 1014.35 1014.89 1015.42 1015.90 1016.29 1016.56 1016.73 1016.80 1016.81 1016.81 1016.84 1016.92 1017.06 1017.27 1017.53 1017.82 1018.11 1018.39 1018.65 1018.89 1019.10 1019.30 1019.49
1013.78 1014.27 1014.78 1015.16 1015.31 1015.14 1014.62 1013.77 1012.68 1011.48 1010.32 1009.35 1008.68 1008.35 1008.38 1008.70 1009.25 1009.89 1010.56 1011.17 1011.69 1012.12 1012.50 1012.88 1013.28 1013.73 1014.25 1014.81 1015.37 1015.88 1016.30 1016.60 1016.78 1016.85 1016.85 1016.83 1016.81 1016.84 1016.94 1017.10 1017.30 1017.54 1017.79 1018.03 1018.25 1018.46 1018.66 1018.87 1019.08
1013.45 1014.11 1014.78 1015.32 1015.57 1015.44 1014.88 1013.93 1012.68 1011.29 1009.94 1008.80 1007.98 1007.58 1007.58 1007.93 1008.55 1009.30 1010.07 1010.78 1011.39 1011.89 1012.31 1012.70 1013.11 1013.57 1014.10 1014.67 1015.25 1015.79 1016.25 1016.59 1016.80 1016.89 1016.90 1016.87 1016.83 1016.83 1016.87 1016.98 1017.14 1017.32 1017.51 1017.69 1017.87 1018.04 1018.22 1018.42 1018.64
1013.15 1013.96 1014.78 1015.44 1015.76 1015.64 1015.03 1013.98 1012.58 1011.02 1009.50 1008.21 1007.29 1006.81 1006.80 1007.18 1007.86 1008.71 1009.58 1010.40 1011.09 1011.65 1012.11 1012.52 1012.94 1013.40 1013.92 1014.50 1015.09 1015.66 1016.15 1016.53 1016.78 1016.90 1016.93 1016.91 1016.86 1016.83 1016.85 1016.91 1017.01 1017.13 1017.27 1017.40 1017.52 1017.65 1017.79 1017.96 1018.17
1012.81 1013.76 1014.70 1015.43 1015.79 1015.67 1015.01 1013.87 1012.36 1010.68 1009.04 1007.65 1006.65 1006.14 1006.12 1006.54 1007.28 1008.20 1009.16 1010.06 1010.82 1011.44 1011.94 1012.37 1012.79 1013.25 1013.76 1014.34 1014.94 1015.52 1016.04 1016.45 1016.73 1016.88 1016.93 1016.92 1016.87 1016.83 1016.81 1016.84 1016.90 1016.97 1017.06 1017.14 1017.21 1017.29 1017.38 1017.52 1017.70
1012.36 1013.41 1014.42 1015.20 1015.58 1015.44 1014.74 1013.55 1011.99 1010.25 1008.57 1007.14 1006.13 1005.62 1005.62 1006.07 1006.85 1007.83 1008.85 1009.81 1010.63 1011.29 1011.83 1012.27 1012.70 1013.15 1013.65 1014.22 1014.81 1015.40 1015.92 1016.35 1016.65 1016.82 1016.89 1016.88 1016.83 1016.78 1016.74 1016.74 1016.76 1016.81 1016.85 1016.89 1016.93 1016.96 1017.01 1017.10 1017.24
1011.73 1012.85 1013.89 1014.67 1015.04 1014.88 1014.18 1012.99 1011.44 1009.74 1008.09 1006.71 1005.75 1005.28 1005.32 1005.80 1006.62 1007.63 1008.68 1009.67 1010.52 1011.21 1011.77 1012.23 1012.66 1013.11 1013.61 1014.16 1014.73 1015.30 1015.82 1016.24 1016.53 1016.71 1016.78 1016.77 1016.71 1016.65 1016.60 1016.58 1016.58 1016.60 1016.62 1016.64 1016.65 1016.65 1016.67 1016.71 1016.80
1010.91 1012.02 1013.04 1013.79 1014.13 1013.97 1013.29 1012.17 1010.72 1009.13 1007.62 1006.37 1005.52 1005.13 1005.23 1005.75 1006.58 1007.59 1008.64 1009.62 1010.48 1011.19 1011.76 1012.24 1012.68 1013.13 1013.61 1014.14 1014.70 1015.24 1015.72 1016.12 1016.39 1016.55 1016.60 1016.58 1016.51 1016.44 1016.37 1016.34 1016.33 1016.34 1016.36 1016.37 1016.37 1016.36 1016.35 1016.36 1016.41
1009.90 1010.96 1011.90 1012.58 1012.88 1012.72 1012.11 1011.10 1009.83 1008.45 1007.15 1006.10 1005.41 1005.15 1005.33 1005.87 1006.69 1007.67 1008.69 1009.64 1010.48 1011.18 1011.76 1012.25 1012.70 1013.16 1013.64 1014.16 1014.68 1015.18 1015.62 1015.97 1016.21 1016.34 1016.36 1016.31 1016.23 1016.14 1016.06 1016.02 1016.01 1016.02 1016.04 1016.06 1016.06 1016.05 1016.03 1016.02 1016.04
1008.78 1009.73 1010.54 1011.12 1011.35 1011.21 1010.69 1009.85 1008.80 1007.69 1006.66 1005.86 1005.39 1005.28 1005.53 1006.10 1006.90 1007.83 1008.78 1009.68 1010.48 1011.16 1011.74 1012.25 1012.72 1013.19 1013.67 1014.17 1014.66 1015.12 1015.51 1015.81 1016.00 1016.08 1016.07 1015.99 1015.88 1015.77 1015.68 1015.63 1015.62 1015.63 1015.66 1015.69 1015.70 1015.70 1015.69 1015.68 1015.69
Thickness
5807 5806 5803 5794 5775 5754 5753 5766 5777 5781 5786 5796 5799 5794 5787 5782 5775 5773 5795 5802 5799 5794 5790 5786 5782 5779 5777 5774 5772 5770 5768 5766 5765 5763 5762 5761 5760 5759 5758 5757 5756 5755 5754 5754 5753 5753 5752 5752 5752
5806 5804 5796 5782 5759 5743 5753 5772 5777 5784 5794 5800 5800 5796 5790 5788 5795 5794 5796 5799 5798 5794 5789 5785 5781 5778 5775 5773 5770 5768 5766 5764 5762 5761 5759 5758 5757 5756 5755 5754 5753 5752 5752 5751 5751 5750 5750 5750 5749
5806 5803 5784 5767 5752 5746 5761 5779 5783 5793 5800 5799 5795 5796 5792 5790 5796 5797 5800 5800 5796 5791 5787 5783 5779 5776 5773 5771 5768 5766 5764 5762 5760 5759 5757 5755 5754 5753 5752 5751 5750 5749 5749 5749 5748 5748 5747 5747 5746
5801 5789 5776 5759 5756 5762 5772 5784 5790 5791 5796 5800 5795 5789 5795 5803 5802 5802 5802 5798 5792 5788 5784 5781 5777 5774 5771 5769 5766 5764 5762 5760 5757 5756 5755 5753 5752 5751 5750 5749 5748 5747 5746 5746 5745 5745 5744 5743 5742
5794 5776 5760 5749 5756 5770 5781 5790 5793 5789 5790 5795 5793 5786 5789 5801 5806 5804 5800 5795 5789 5784 5781 5778 5775 5772 5769 5767 5764 5762 5760 5758 5755 5754 5752 5751 5749 5748 5747 5746 5745 5744 5744 5743 5742 5741 5741 5740 5740
5777 5765 5746 5743 5757 5774 5784 5793 5793 5789 5789 5793 5791 5785 5787 5798 5800 5798 5797 5792 5787 5782 5778 5775 5772 5769 5767 5765 5762 5760 5758 5755 5753 5751 5749 5748 5747 5746 5744 5743 5743 5742 5741 5740 5739 5738 5738 5738 5737
5770 5756 5748 5752 5757 5768 5786 5795 5792 5789 5787 5791 5795 5782 5786 5792 5796 5796 5792 5788 5784 5780 5776 5772 5770 5767 5765 5763 5760 5758 5756 5753 5751 5749 5747 5745 5744 5743 5742 5741 5740 5739 5738 5737 5737 5736 5736 5735 5735
5777 5759 5752 5751 5757 5767 5788 5794 5797 5793 5791 5802 5799 5784 5782 5791 5795 5792 5787 5783 5779 5776 5773 5770 5767 5764 5762 5760 5758 5756 5753 5751 5749 5746 5744 5743 5741 5740 5739 5738 5737 5736 5736 5735 5734 5733 5733 5733 5732
5780 5752 5744 5754 5761 5772 5787 5787 5795 5802 5797 5798 5800 5797 5798 5796 5792 5786 5780 5776 5773 5771 5769 5767 5764 5761 5759 5758 5755 5753 5751 5749 5747 5744 5742 5740 5739 5737 5736 5735 5734 5733 5733 5732 5731 5730 5730 5730 5730
5768 5748 5757 5772 5777 5780 5785 5787 5790 5791 5788 5789 5792 5795 5797 5792 5786 5781 5776 5772 5770 5768 5766 5764 5762 5759 5757 5755 5753 5750 5748 5746 5744 5742 5740 5738 5737 5735 5733 5732 5731 5731 5730 5729 5728 5728 5727 5726 5726
5768 5761 5773 5781 5786 5786 5783 5786 5792 5786 5781 5788 5789 5790 5789 5785 5781 5778 5776 5773 5770 5768 5766 5763 5760 5758 5755 5753 5750 5748 5745 5743 5741 5739 5738 5736 5734 5732 5731 5729 5728 5727 5727 5726 5725 5724 5724 5723 5723
5768 5774 5779 5784 5789 5786 5784 5786 5786 5787 5792 5803 5801 5797 5790 5783 5780 5778 5775 5772 5769 5766 5764 5762 5759 5756 5754 5751 5749 5746 5743 5741 5739 5737 5735 5733 5731 5729 5728 5726 5725 5724 5723 5722 5722 5721 5721 5720 5720
5768 5774 5783 5787 5787 5786 5786 5784 5784 5789 5800 5803 5800 5794 5788 5784 5781 5779 5777 5773 5769 5765 5763 5760 5758 5754 5751 5748 5746 5744 5741 5739 5737 5735 5733 5731 5728 5726 5725 5723 5722 5721 5720 5719 5718 5717 5717 5717 5717
5772 5774 5778 5782 5784 5785 5781 5781 5782 5789 5797 5796 5793 5789 5786 5784 5781 5776 5774 5771 5768 5766 5762 5759 5756 5753 5750 5747 5744 5742 5740 5737 5734 5732 5730 5728 5726 5724 5722 5720 5719 5718 5717 5716 5715 5714 5714 5714 5714
5772 5767 5770 5777 5780 5780 5778 5770 5779 5791 5792 5788 5786 5785 5782 5781 5779 5776 5774 5772 5769 5766 5762 5758 5755 5752 5749 5746 5743 5740 5738 5735 5733 5731 5728 5726 5724 5722 5720 5718 5716 5716 5714 5713 5712 5711 5710 5710 5710
5762 5754 5749 5768 5775 5777 5767 5754 5780 5789 5785 5780 5781 5780 5777 5776 5777 5777 5774 5771 5769 5765 5761 5758 5756 5752 5748 5744 5741 5739 5736 5733 5731 5729 5726 5724 5722 5719 5717 5715 5714 5713 5712 5710 5709 5708 5707 5706 5706
5741 5733 5739 5754 5770 5770 5761 5755 5775 5783 5779 5775 5776 5775 5774 5772 5772 5773 5772 5770 5768 5764 5761 5757 5754 5750 5746 5743 5739 5736 5733 5730 5728 5726 5724 5722 5720 5718 5715 5714 5712 5711 5709 5707 5706 5704 5703 5702 5702
5728 5731 5737 5744 5761 5761 5753 5754 5769 5776 5774 5772 5773 5772 5771 5770 5771 5773 5771 5769 5766 5763 5759 5756 5752 5749 5744 5739 5735 5731 5729 5727 5725 5723 5721 5720 5718 5716 5714 5712 5710 5708 5706 5704 5703 5701 5700 5698 5698
5740 5736 5733 5747 5761 5754 5750 5752 5762 5770 5768 5767 5767 5767 5767 5768 5771 5770 5768 5766 5762 5759 5755 5753 5749 5746 5741 5736 5731 5728 5725 5724 5722 5721 5719 5718 5716 5714 5711 5709 5707 5705 5703 5701 5700 5698 5696 5694 5694
5736 5730 5732 5744 5757 5752 5745 5748 5759 5765 5765 5768 5767 5766 5766 5764 5764 5764 5763 5761 5759 5756 5753 5750 5747 5744 5740 5737 5733 5729 5725 5722 5720 5718 5716 5715 5713 5711 5709 5707 5705 5702 5700 5698 5696 5695 5692 5690 5689
5733 5729 5733 5735 5744 5746 5740 5737 5750 5761 5765 5766 5766 5766 5765 5764 5762 5761 5760 5759 5757 5753 5751 5749 5745 5742 5739 5735 5730 5725 5720 5718 5715 5714 5713 5712 5710 5708 5707 5705 5703 5700 5697 5694 5693 5692 5689 5686 5684
5727 5744 5741 5737 5725 5718 5729 5710 5738 5749 5753 5759 5762 5762 5763 5764 5762 5760 5758 5756 5755 5753 5750 5747 5744 5740 5737 5732 5727 5722 5717 5714 5714 5712 5710 5708 5707 5705 5703 5702 5700 5698 5695 5692 5690 5689 5687 5684 5681
5738 5748 5741 5734 5721 5712 5718 5708 5724 5741 5743 5753 5758 5761 5762 5762 5760 5758 5757 5756 5754 5751 5748 5744 5740 5737 5734 5730 5726 5720 5717 5714 5711 5709 5706 5705 5703 5702 5700 5698 5697 5694 5692 5690 5687 5685 5683 5682 5679
5747 5739 5729 5716 5706 5698 5713 5704 5713 5731 5743 5751 5758 5759 5759 5759 5758 5756 5755 5752 5750 5748 5744 5741 5737 5734 5731 5727 5723 5719 5714 5711 5707 5705 5703 5701 5699 5697 5696 5695 5693 5691 5689 5686 5683 5681 5679 5678 5676
5736 5714 5693 5690 5683 5693 5715 5708 5716 5744 5751 5754 5755 5756 5757 5756 5754 5751 5749 5747 5745 5743 5740 5737 5733 5729 5727 5723 5719 5716 5712 5709 5705 5703 5701 5698 5695 5693 5692 5691 5689 5687 5686 5683 5680 5678 5675 5674 5672
5727 5716 5690 5680 5679 5691 5707 5706 5728 5749 5753 5755 5755 5753 5752 5750 5750 5748 5747 5744 5742 5739 5736 5733 5729 5726 5723 5720 5717 5714 5710 5707 5704 5701 5698 5695 5693 5691 5690 5688 5686 5684 5682 5680 5677 5675 5672 5669 5668
5721 5712 5714 5693 5689 5684 5694 5711 5731 5747 5748 5748 5748 5747 5745 5744 5745 5743 5742 5740 5737 5734 5731 5728 5725 5722 5720 5717 5714 5711 5707 5704 5700 5698 5695 5693 5691 5689 5687 5684 5682 5680 5678 5675 5673 5670 5668 5665 5663
5731 5717 5698 5687 5676 5674 5690 5702 5712 5732 5737 5741 5741 5739 5739 5740 5739 5738 5737 5735 5733 5731 5727 5723 5720 5717 5715 5712 5709 5708 5704 5700 5697 5693 5691 5689 5687 5685 5682 5679 5677 5675 5673 5670 5668 5665 5663 5660 5659
5717 5710 5698 5685 5682 5674 5673 5696 5732 5733 5736 5735 5737 5737 5736 5735 5734 5732 5731 5730 5727 5724 5720 5717 5714 5711 5709 5708 5706 5703 5700 5697 5693 5689 5687 5684 5682 5680 5677 5674 5671 5669 5668 5666 5663 5661 5658 5656 5654
5722 5714 5699 5686 5681 5677 5674 5695 5736 5735 5735 5733 5733 5734 5733 5731 5729 5728 5726 5723 5720 5716 5713 5710 5708 5706 5705 5703 5701 5699 5695 5692 5688 5684 5682 5679 5677 5674 5672 5668 5666 5664 5662 5659 5657 5655 5654 5651 5649